GFSSW_prec_cthk_336.txt.gz
RH
7 7 6 6 6 6 5 5 5 4 4 4 8 15 22 27 29 29 33 39 49 60 67 61 62 63 63 62 67 68 70 64 57 54 49 52 50 57 54 57 60 63 59 67 60
7 7 6 6 6 6 5 5 5 4 4 4 5 12 20 26 29 29 35 43 52 64 60 59 64 62 65 60 54 58 68 66 53 52 48 54 47 53 55 55 56 58 63 71 69
7 7 7 7 6 6 6 5 5 5 4 4 4 9 17 24 29 29 35 39 50 68 66 64 64 71 64 69 60 54 60 54 58 53 46 59 51 52 54 57 51 54 63 72 70
7 7 7 7 7 7 6 6 5 5 5 4 3 5 13 21 32 30 33 36 46 65 64 59 66 66 64 67 71 65 57 55 59 55 50 57 49 52 51 53 51 51 60 65 65
8 7 7 7 7 7 7 6 6 6 5 5 4 3 8 17 26 27 29 33 46 56 58 59 63 64 66 62 63 70 63 62 55 54 55 65 49 50 51 52 49 47 56 62 66
8 8 7 7 6 6 6 7 7 6 6 5 4 3 5 13 22 22 28 33 39 52 54 54 49 52 63 61 56 66 67 66 59 52 59 55 49 50 56 49 49 48 53 56 58
10 9 8 7 7 6 6 6 6 6 6 6 5 4 3 10 20 19 24 31 37 48 56 53 49 53 57 55 51 64 70 65 66 65 56 53 50 51 53 52 46 47 52 54 54
12 11 10 9 8 8 7 7 7 7 7 6 6 5 4 7 17 20 19 25 35 46 51 52 50 51 47 52 56 58 69 86 65 63 55 54 56 51 51 51 46 42 53 54 54
13 12 10 10 9 10 10 8 7 7 8 7 6 6 5 7 10 17 12 20 35 42 45 46 45 45 42 43 48 52 69 77 72 65 57 51 58 56 52 51 41 42 48 53 52
12 10 9 8 8 9 11 10 8 8 7 7 9 9 5 7 8 10 11 15 32 39 41 41 41 42 41 41 46 52 56 65 81 65 55 51 57 57 50 50 54 46 40 48 49
12 10 8 7 7 8 9 11 14 14 10 7 9 8 10 10 11 9 11 16 28 34 35 35 39 37 34 38 37 37 46 55 62 58 46 49 56 56 52 49 56 55 45 42 47
12 10 9 8 8 8 10 15 15 15 13 10 11 9 10 11 12 13 13 17 20 30 32 35 35 29 29 34 36 37 38 51 49 53 43 39 42 56 58 53 57 60 54 48 44
10 9 8 8 8 8 13 14 14 15 16 11 12 12 11 10 12 14 14 14 16 23 30 35 29 28 31 32 33 29 30 41 45 46 40 44 44 56 62 60 62 63 55 51 53
10 9 8 10 10 10 14 13 14 15 17 16 13 12 12 12 12 14 15 12 14 19 28 29 35 26 30 35 35 37 30 35 38 39 45 45 54 61 62 54 59 61 58 55 53
11 10 10 15 16 17 16 15 15 21 32 22 18 13 11 11 11 11 15 13 13 17 27 29 29 29 28 31 33 33 28 32 32 34 36 47 50 52 58 65 63 64 67 55 55
11 10 10 15 15 16 16 24 27 32 34 23 20 13 13 14 14 14 13 13 15 14 20 25 21 23 24 25 27 23 22 22 29 35 38 40 40 47 62 67 72 74 73 64 55
14 12 11 12 13 17 25 30 36 35 25 20 18 14 15 15 14 16 15 12 13 17 19 21 19 18 19 17 19 21 21 26 29 39 42 43 44 50 55 62 67 64 70 75 64
16 19 17 21 29 34 33 36 39 36 28 20 16 14 15 14 17 15 13 10 15 21 23 21 19 17 18 15 11 17 21 26 24 43 45 45 58 54 47 58 63 57 52 67 60
23 25 28 30 31 32 36 39 38 33 23 19 17 19 20 18 18 16 16 13 18 20 20 20 18 16 16 14 12 11 20 22 36 41 44 56 55 48 52 57 51 54 47 60 58
24 27 30 36 40 37 39 40 35 32 28 21 28 22 20 20 19 20 20 20 21 18 20 20 20 17 16 14 11 12 18 18 26 41 40 50 55 56 65 51 41 40 42 55 51
22 33 35 36 39 38 37 39 33 30 28 29 32 28 28 24 20 21 21 25 22 23 21 20 21 18 16 14 12 11 14 15 21 32 41 47 63 64 62 48 40 38 32 47 56
27 35 32 37 40 38 35 34 34 29 31 26 31 33 31 26 26 25 25 25 24 22 22 22 22 18 19 19 17 15 20 18 22 34 46 45 60 58 53 46 45 43 47 39 43
31 34 34 39 46 40 38 34 37 33 29 33 34 34 31 33 37 36 32 28 27 27 23 18 22 23 24 23 21 21 24 22 29 36 41 47 59 54 52 49 46 49 51 51 60
33 35 36 38 41 42 43 42 34 29 30 30 30 30 32 39 37 38 34 34 31 26 19 20 22 24 31 28 25 23 23 23 25 36 51 46 40 44 51 48 52 52 46 49 57
31 37 39 41 40 38 38 37 36 37 30 25 32 33 34 41 41 37 34 32 28 23 22 22 24 28 33 25 27 25 25 24 25 38 37 39 39 39 40 42 49 46 43 45 41
32 34 41 38 35 36 36 34 32 32 30 29 29 22 26 36 36 37 38 36 33 28 23 21 27 29 31 30 29 29 28 31 34 39 39 42 44 44 39 38 42 47 41 36 34
24 23 33 38 35 31 30 30 29 30 29 23 22 24 25 22 25 25 29 31 32 27 27 20 25 30 32 30 33 34 35 35 42 38 41 50 45 45 48 48 47 42 39 30 25

GFSSW_prec_cthk_339.txt.gz
RH
7 7 7 7 6 6 6 5 5 4 4 6 13 21 27 27 26 30 37 46 56 61 64 63 62 66 63 61 66 67 66 60 52 54 53 54 56 59 55 52 53 63 57 61 67
7 7 7 7 6 6 6 5 5 5 4 4 9 17 25 28 26 30 41 47 54 58 59 61 56 58 60 62 62 64 68 55 52 55 58 57 59 56 53 53 55 61 61 60 63
8 7 7 7 7 6 6 6 5 5 4 4 6 14 22 27 27 28 42 50 54 58 61 59 57 52 51 53 55 58 61 58 55 55 58 61 57 52 52 59 57 60 64 61 63
8 8 7 7 7 7 7 6 6 6 5 4 4 11 19 25 29 26 34 43 53 56 59 57 55 57 59 60 60 60 57 65 64 60 52 51 55 57 53 53 54 62 65 62 64
9 8 8 7 7 7 7 7 6 6 6 5 4 7 16 23 29 26 32 39 48 53 53 51 55 58 61 63 65 67 66 62 65 55 52 50 52 58 59 51 50 62 66 63 65
10 9 9 8 7 7 7 7 7 7 6 6 5 4 11 22 24 25 29 35 49 51 54 54 56 58 60 62 60 64 66 68 71 74 61 54 54 57 62 55 45 54 65 63 64
12 11 10 9 8 7 7 6 6 7 7 6 6 4 7 18 22 22 26 32 40 49 56 58 56 58 57 55 59 60 63 78 71 66 58 56 57 56 57 54 47 47 57 64 65
13 12 11 9 9 8 7 7 7 7 8 7 7 5 4 9 21 21 24 29 34 42 52 54 59 58 59 57 58 62 65 80 85 71 61 59 59 59 52 51 47 48 50 55 56
12 12 11 10 9 9 9 9 7 7 7 8 7 6 5 7 18 19 22 26 33 40 48 52 57 56 54 56 56 65 72 85 70 66 64 58 61 53 52 49 47 47 51 53 58
12 11 10 8 8 9 10 11 9 9 8 7 8 8 7 8 11 17 15 23 31 40 46 50 53 55 52 49 50 52 70 69 59 59 59 59 57 49 45 47 47 45 49 51 53
12 11 10 8 8 8 9 11 14 14 11 7 8 10 9 10 9 11 15 16 32 38 43 45 44 46 42 43 42 41 53 57 51 46 51 53 50 47 45 42 45 47 46 47 48
11 10 10 9 8 8 11 15 14 14 13 10 10 11 11 11 12 11 12 16 25 37 42 43 42 37 36 36 37 37 37 46 49 48 49 49 53 53 52 46 41 46 45 44 46
11 9 8 8 8 11 14 13 13 13 15 12 10 11 11 12 11 11 11 17 18 33 39 42 38 36 37 37 39 39 38 41 42 47 47 51 54 58 54 50 46 46 45 43 44
11 10 9 10 10 12 13 13 12 12 16 12 12 14 12 12 13 14 13 14 16 24 34 37 35 33 33 36 39 37 32 36 40 44 44 48 50 54 58 53 53 53 53 47 47
11 10 12 14 13 14 15 15 16 17 27 20 16 14 14 13 11 13 15 15 14 18 30 34 33 30 29 30 33 29 32 38 40 43 48 50 52 54 63 58 52 55 54 53 48
12 11 13 16 19 23 23 24 30 33 29 25 18 14 13 14 14 13 15 18 18 18 23 33 29 24 25 23 30 30 38 34 39 42 48 49 48 56 60 57 53 55 57 54 48
13 13 12 18 24 28 29 32 35 33 27 22 19 13 15 15 15 13 13 18 16 16 25 28 23 21 21 21 26 27 30 31 35 44 47 52 56 54 51 53 56 58 53 50 52
20 23 23 29 35 35 35 36 37 28 27 23 18 16 20 17 16 14 13 18 19 18 29 23 21 17 16 16 18 20 24 27 23 39 48 51 57 52 46 53 56 58 59 54 48
25 28 31 34 35 35 36 39 36 29 20 14 16 18 21 19 17 15 16 21 22 23 23 20 20 18 14 13 14 16 20 25 39 44 46 57 50 46 49 49 54 61 57 50 53
30 34 35 35 37 38 38 37 34 29 23 22 25 24 22 20 19 18 22 22 21 20 18 19 20 17 15 14 14 15 17 20 29 40 48 51 53 54 47 44 47 51 57 58 59
31 36 35 35 37 38 41 37 31 31 28 27 31 29 28 26 21 21 22 26 23 22 20 20 21 19 15 15 17 14 16 18 25 33 41 54 52 43 43 43 52 53 49 57 56
33 37 35 33 35 36 39 34 30 31 33 31 30 29 28 27 25 25 24 26 26 25 26 24 23 21 19 20 20 16 19 18 19 32 45 48 50 36 39 41 47 50 45 50 49
36 36 35 36 40 36 33 31 32 34 34 34 32 32 33 34 31 31 30 28 27 27 26 23 24 25 25 25 25 25 24 26 32 40 45 48 51 36 38 39 43 44 45 46 45
35 40 36 38 41 39 35 33 32 29 30 33 35 33 35 37 37 36 36 32 29 26 26 24 24 27 30 27 26 26 25 25 29 37 49 45 43 38 35 38 38 37 38 41 44
36 39 38 41 41 39 38 36 33 32 28 27 36 38 36 38 36 35 37 37 33 29 27 25 25 28 28 26 26 26 27 26 25 36 33 38 39 36 37 38 38 41 40 38 40
28 37 37 37 37 33 33 34 34 32 28 27 24 34 37 35 37 36 34 34 33 28 25 22 25 28 29 28 27 29 32 34 36 36 36 37 38 40 42 45 46 41 36 35 34
25 31 35 36 38 35 34 31 31 30 29 25 22 23 29 30 29 32 35 31 31 32 32 27 23 29 33 34 33 33 34 36 36 38 34 39 40 43 47 49 46 43 35 30 29

GFSSW_prec_cthk_342.txt.gz
RH
8 7 7 7 6 6 6 5 5 4 5 11 18 21 21 25 29 34 42 51 59 62 62 69 73 71 70 69 67 67 64 60 54 54 57 58 58 62 59 56 58 65 64 65 72
8 8 7 7 7 6 6 5 5 4 4 7 14 20 20 26 30 35 42 49 55 56 56 64 71 67 68 70 69 67 63 58 54 55 58 58 59 65 59 58 59 64 63 66 66
9 8 7 7 7 7 6 6 5 5 4 4 10 18 19 25 32 37 43 50 54 55 55 55 58 61 65 64 64 64 61 59 55 57 55 57 65 65 56 61 64 66 62 64 68
10 9 8 8 7 7 7 6 6 6 5 4 7 15 19 20 32 38 41 50 55 53 53 55 56 57 57 57 58 61 65 65 61 60 54 62 63 65 65 60 63 63 58 63 63
11 10 10 9 8 7 7 7 7 6 6 4 5 12 18 20 27 32 39 47 55 54 54 55 56 57 58 60 61 60 60 61 59 57 54 60 62 62 68 55 60 61 61 64 60
12 11 11 10 9 8 7 7 7 7 6 6 4 8 15 21 22 28 34 43 51 52 53 56 59 60 61 62 65 66 64 59 58 61 55 56 62 60 66 53 54 59 62 65 62
13 12 11 10 10 9 8 7 7 6 7 7 5 6 12 20 22 24 29 36 44 51 55 60 60 58 58 60 64 62 58 63 59 61 60 61 63 61 61 50 47 60 61 64 63
13 13 12 11 10 9 8 8 7 7 7 8 7 5 9 14 21 21 27 34 38 45 52 56 59 57 55 59 63 60 54 67 60 63 58 59 62 66 56 47 46 52 61 64 65
12 11 11 10 10 10 10 10 8 7 7 8 7 6 5 11 20 21 25 34 36 36 45 53 54 51 50 52 57 62 66 61 58 56 57 55 54 54 52 46 45 47 50 57 60
11 10 10 8 9 9 10 11 11 9 8 8 7 7 5 8 18 22 21 32 33 34 44 50 50 49 49 49 52 57 59 58 54 57 55 57 55 62 51 47 43 44 47 49 55
10 10 10 9 9 9 10 11 15 13 10 7 8 9 7 9 14 22 19 26 32 40 49 50 48 48 48 47 43 44 48 53 53 50 51 56 59 62 60 52 50 45 46 47 47
11 10 10 10 9 10 13 15 15 15 14 11 10 10 10 10 10 17 18 19 28 41 46 49 48 45 43 40 38 38 44 48 49 48 46 49 56 60 66 60 57 54 47 45 46
11 9 8 8 9 13 14 14 14 13 16 12 11 11 11 11 11 11 14 16 23 39 47 49 46 45 37 37 37 37 41 41 45 50 47 47 53 58 58 58 56 56 52 46 44
11 9 10 10 12 14 14 14 13 13 16 12 12 12 12 13 13 14 12 13 19 35 45 47 44 42 36 31 34 34 32 38 46 50 52 49 53 54 56 56 55 56 55 48 39
12 10 13 13 14 16 16 14 14 20 24 13 14 14 14 14 15 16 13 15 19 27 37 41 40 38 34 30 31 32 35 39 42 48 53 52 52 46 55 56 54 55 55 55 44
13 13 19 22 23 24 26 27 27 29 27 23 18 16 15 15 16 17 19 19 18 19 34 39 38 34 31 30 30 35 35 38 41 44 49 45 46 46 53 53 55 55 56 55 51
18 20 23 25 26 27 30 32 35 33 26 23 17 15 15 16 16 16 19 20 22 17 29 35 35 28 28 28 32 32 29 35 42 50 47 45 47 45 44 49 51 61 61 64 61
26 31 32 31 33 34 34 35 31 30 30 21 15 15 18 16 16 16 17 18 19 20 28 34 25 23 24 24 25 27 25 28 25 45 45 47 49 41 42 44 46 55 63 66 59
31 34 35 34 32 33 34 38 32 25 23 17 19 19 20 19 17 15 16 19 18 23 27 26 23 18 18 19 21 20 21 28 43 46 46 47 42 38 38 42 44 50 56 61 57
32 33 34 35 32 32 36 36 32 27 23 23 25 25 22 19 17 18 20 21 20 25 22 21 22 18 16 15 16 18 23 24 33 42 43 44 44 44 42 43 45 49 58 63 53
33 32 32 33 32 32 35 36 33 29 28 28 29 28 28 28 20 21 23 24 24 22 21 21 21 19 18 17 16 16 16 22 30 36 41 44 43 39 40 43 48 48 53 50 49
34 37 35 32 34 36 33 34 33 35 33 31 32 33 29 28 27 27 25 28 28 26 25 25 24 23 19 21 20 14 16 21 20 28 40 42 40 39 41 44 47 48 50 53 55
35 37 36 34 40 41 37 31 33 34 36 37 34 33 33 30 28 28 26 26 27 27 25 23 25 27 27 26 24 22 23 24 33 37 44 40 37 36 39 44 48 49 49 51 56
35 38 38 35 38 40 37 35 34 34 33 37 36 36 36 35 32 30 30 29 26 25 26 26 27 27 29 26 25 24 24 29 30 34 42 41 33 32 34 38 41 43 50 53 53
33 39 39 40 39 38 37 36 37 34 34 34 35 38 37 41 39 39 35 33 31 30 29 29 30 28 27 27 27 26 29 24 24 31 30 29 33 34 35 39 44 45 43 40 37
28 38 41 39 38 31 32 35 37 36 35 30 33 33 37 36 38 39 37 36 36 34 33 27 27 30 30 30 30 30 31 35 34 35 35 35 34 33 39 45 45 41 40 36 31
26 29 37 37 37 33 35 33 32 30 27 27 25 24 29 34 34 34 35 35 34 32 31 30 26 28 35 35 32 31 31 32 36 35 35 37 35 41 46 47 42 40 36 31 29

GFSSW_prec_cthk_345.txt.gz
RH
8 8 7 7 6 6 5 5 4 5 9 14 18 21 26 29 34 42 47 52 57 59 66 73 75 73 76 74 73 71 60 58 59 61 62 59 57 62 62 57 64 66 64 66 66
9 8 7 7 7 6 6 5 4 4 6 11 16 19 27 30 36 39 45 50 55 60 65 70 72 70 73 73 70 62 56 57 59 59 60 61 63 63 65 67 71 63 61 68 74
10 9 8 8 7 7 6 6 5 4 4 8 14 17 26 31 38 41 46 50 55 55 58 62 66 68 67 69 74 62 58 57 56 55 58 62 71 67 63 70 69 60 65 71 76
12 11 10 9 8 7 6 6 6 5 4 6 11 15 24 30 40 41 49 50 54 57 58 57 57 57 58 57 56 59 58 54 56 52 56 61 71 71 61 69 66 61 64 67 72
12 12 11 10 9 8 7 6 6 6 5 5 9 13 21 29 35 39 44 52 54 59 59 58 62 62 59 58 54 52 56 53 52 50 56 58 64 65 63 65 63 62 64 68 69
13 12 12 11 10 9 7 6 6 7 6 5 6 11 16 25 33 40 41 48 54 57 58 60 65 60 56 56 54 51 48 49 52 54 52 56 61 59 66 61 61 61 63 66 65
13 13 12 12 10 9 8 7 6 6 7 6 5 10 14 20 29 36 39 44 51 57 59 62 61 57 52 51 52 52 54 51 53 54 54 56 61 63 60 53 59 59 61 61 65
13 12 12 11 11 10 9 8 6 6 7 7 6 7 12 16 23 32 36 41 47 52 56 58 54 51 50 53 54 57 56 56 55 52 53 53 59 61 59 47 56 61 62 62 61
10 10 10 9 9 10 10 10 8 6 7 8 7 6 10 14 21 26 33 37 37 43 52 54 50 49 46 49 52 56 61 55 52 50 50 49 54 60 57 49 47 53 59 61 61
11 10 10 9 8 9 10 11 11 8 7 8 7 6 6 13 19 23 29 34 35 37 47 48 47 47 42 43 43 48 55 56 55 57 57 53 54 56 55 48 47 49 50 53 54
11 10 10 9 9 10 11 12 13 11 9 7 7 8 7 11 19 25 23 31 29 36 47 49 46 43 41 39 38 39 43 48 51 50 54 55 58 59 54 50 46 49 49 50 52
11 9 9 10 10 11 13 16 16 15 12 10 10 9 10 10 16 23 20 24 31 43 49 46 45 40 37 35 35 35 38 40 48 48 47 50 55 60 58 53 48 48 50 51 51
12 9 9 9 11 13 14 15 15 15 14 11 11 11 12 11 13 21 21 21 27 44 47 46 44 39 37 30 30 33 36 38 41 48 47 48 54 59 59 61 62 60 51 48 47
12 9 10 10 14 14 16 15 14 15 15 12 12 12 12 13 12 15 21 21 23 40 44 43 42 41 35 29 27 31 32 35 41 45 50 49 45 54 56 60 61 61 62 55 45
13 12 13 14 15 16 16 15 15 18 17 12 13 14 15 15 15 15 15 17 19 33 41 41 42 39 31 28 28 32 31 36 40 42 46 47 46 46 54 56 57 59 62 60 54
17 17 19 22 24 25 25 26 26 26 23 17 16 15 15 16 17 19 17 15 16 21 35 39 42 40 34 31 33 33 35 36 37 36 42 42 43 40 50 51 53 59 63 63 58
26 27 28 30 30 30 30 32 33 29 26 23 19 17 16 17 18 19 19 20 20 20 32 37 37 38 33 34 38 33 28 32 35 36 37 40 41 40 43 47 51 57 62 64 63
32 30 30 31 31 32 30 30 32 31 27 21 18 18 18 17 16 15 18 19 19 16 30 35 35 33 28 28 32 34 26 23 26 27 31 40 37 39 44 45 51 57 61 66 66
31 32 32 34 34 33 29 27 27 31 25 16 16 17 17 18 16 15 16 14 16 17 30 35 28 25 23 25 24 27 25 23 30 37 34 36 33 33 41 43 49 53 60 63 65
32 33 32 32 31 33 30 29 27 26 24 22 21 22 21 20 18 17 16 17 17 22 30 28 24 21 18 17 20 21 23 24 28 33 32 33 32 35 40 47 52 57 63 64 61
34 33 34 33 33 34 33 33 32 31 29 29 28 27 26 22 20 22 21 20 23 27 27 25 21 21 19 18 18 18 20 24 25 28 25 28 26 37 40 47 51 51 56 56 55
31 33 34 35 36 36 32 35 33 35 34 35 34 33 29 28 26 24 26 29 30 24 24 23 22 21 20 18 18 18 17 20 18 27 28 30 29 35 34 43 50 50 54 52 53
35 36 34 36 38 40 35 31 34 34 36 37 37 36 32 30 30 28 29 30 30 28 26 24 24 24 23 22 21 19 23 20 25 26 30 27 29 38 35 38 44 49 55 59 60
35 35 37 36 38 39 39 37 33 34 35 36 37 35 37 33 28 28 27 26 27 28 26 26 25 25 25 25 25 24 22 26 26 27 28 27 34 36 37 39 38 41 39 36 36
32 36 37 40 39 39 38 38 37 36 35 35 35 36 35 36 32 28 27 26 27 26 25 25 27 27 26 26 27 25 27 25 25 26 25 32 34 35 39 41 42 41 40 39 38
30 35 37 37 39 36 36 33 36 35 32 30 32 35 35 36 35 34 33 33 34 31 30 30 30 28 27 26 29 30 29 28 26 29 33 35 38 40 43 44 39 40 40 40 34
25 31 35 34 34 35 36 32 30 31 27 24 25 26 32 34 34 35 35 35 35 34 33 31 27 27 31 28 29 31 31 28 29 33 36 35 38 44 48 43 42 42 38 33 29